,,,PA_Meas_PMT16A,,PR_Meas_QMR101_102,,RH_Meas_QMH101,,SR_Meas_QMS101,,TA_Meas_QMH101,,GenWind,,GenWind,
date,time,status,PA,status,PR,status,RH,status,SR,status,TA,status,DirAvg,status,SpdAvg,
2010-12-02, 00:00:04,VALID,1000.73,VALID,0,INVALID,163.632,VALID,0,VALID,24.6945,VALID,42,VALID,0.514844,
2010-12-02, 00:01:04,VALID,1000.73,VALID,0,INVALID,163.678,VALID,0,VALID,24.714,VALID,42,VALID,0.437891,
2010-12-02, 00:02:04,VALID,1000.76,VALID,0,INVALID,163.632,VALID,0,VALID,24.714,VALID,42,VALID,0.299609,
2010-12-02, 00:03:04,VALID,1000.76,VALID,0,INVALID,163.632,VALID,0,VALID,24.7335,VALID,42,VALID,0.45,
2010-12-02, 00:04:04,VALID,1000.78,VALID,0,INVALID,163.624,VALID,0,VALID,24.7919,VALID,42,VALID,0.332031,
2010-12-02, 00:05:04,VALID,1000.75,VALID,0,INVALID,163.655,VALID,0,VALID,24.8132,VALID,41,VALID,0.451172,
2010-12-02, 00:06:04,VALID,1000.76,VALID,0,INVALID,163.647,VALID,0,VALID,24.7919,VALID,41,VALID,0.597656,
2010-12-02, 00:07:04,VALID,1000.78,VALID,0,INVALID,163.647,VALID,0,VALID,24.7724,VALID,42,VALID,0.430859,
2010-12-02, 00:08:04,VALID,1000.77,VALID,0,INVALID,163.632,VALID,0,VALID,24.7705,VALID,41,VALID,0.453516,
2010-12-02, 00:09:04,VALID,1000.76,VALID,0,INVALID,163.632,VALID,0,VALID,24.7937,VALID,41,VALID,0.450391,
2010-12-02, 00:10:04,VALID,1000.75,VALID,0,INVALID,163.624,VALID,0,VALID,24.751,VALID,40,VALID,0.306641,
2010-12-02, 00:11:04,VALID,1000.77,VALID,0,INVALID,163.639,VALID,0,VALID,24.7919,VALID,40,VALID,0.422266,
2010-12-02, 00:12:04,VALID,1000.78,VALID,0,INVALID,163.624,VALID,0,VALID,24.8327,VALID,40,VALID,0.547656,
2010-12-02, 00:13:04,VALID,1000.74,VALID,0,INVALID,163.609,VALID,0,VALID,24.8308,VALID,40,VALID,0.4625,
2010-12-02, 00:14:04,VALID,1000.77,VALID,0,INVALID,163.624,VALID,0,VALID,24.8503,VALID,40,VALID,0.238672,
2010-12-02, 00:15:04,VALID,1000.79,VALID,0,INVALID,163.647,VALID,0,VALID,24.8716,VALID,40,VALID,0.438281,
2010-12-02, 00:16:04,VALID,1000.76,VALID,0,INVALID,163.632,VALID,0,VALID,24.8503,VALID,40,VALID,0,
2010-12-02, 00:17:04,VALID,1000.79,VALID,0,INVALID,163.617,VALID,0,VALID,24.8697,VALID,40,VALID,0.444531,
2010-12-02, 00:18:04,VALID,1000.8,VALID,0,INVALID,163.632,VALID,0,VALID,24.8308,VALID,41,VALID,0.242188,
2010-12-02, 00:19:04,VALID,1000.81,VALID,0,INVALID,163.624,VALID,0,VALID,24.8308,VALID,41,VALID,0.348047,
2010-12-02, 00:20:04,VALID,1000.8,VALID,0,INVALID,163.624,VALID,0,VALID,24.8308,VALID,41,VALID,0.563672,
2010-12-02, 00:21:04,VALID,1000.81,VALID,0,INVALID,163.624,VALID,0,VALID,24.8308,VALID,41,VALID,0.572656,
2010-12-02, 00:22:04,VALID,1000.79,VALID,0,INVALID,163.639,VALID,0,VALID,24.8503,VALID,41,VALID,0.682422,
2010-12-02, 00:23:04,VALID,1000.79,VALID,0,INVALID,163.647,VALID,0,VALID,24.8308,VALID,41,VALID,0.590625,
2010-12-02, 00:24:04,VALID,1000.78,VALID,0,INVALID,163.632,VALID,0,VALID,24.8113,VALID,41,VALID,0.566406,
2010-12-02, 00:25:04,VALID,1000.74,VALID,0,INVALID,163.639,VALID,0,VALID,24.8308,VALID,41,VALID,0.528516,
2010-12-02, 00:26:04,VALID,1000.75,VALID,0,INVALID,163.639,VALID,0,VALID,24.8113,VALID,40,VALID,0.598047,
2010-12-02, 00:27:04,VALID,1000.75,VALID,0,INVALID,163.624,VALID,0,VALID,24.8308,VALID,24,VALID,0.773438,
2010-12-02, 00:28:04,VALID,1000.74,VALID,0,INVALID,163.632,VALID,0,VALID,24.8308,VALID,18,VALID,0.975391,
2010-12-02, 00:29:04,VALID,1000.74,VALID,0,INVALID,163.655,VALID,0,VALID,24.8697,VALID,3,VALID,0.60625,
2010-12-02, 00:30:04,VALID,1000.71,VALID,0,INVALID,163.617,VALID,0,VALID,24.8697,VALID,23,VALID,0.539453,
2010-12-02, 00:31:04,VALID,1000.74,VALID,0,INVALID,163.632,VALID,0,VALID,24.8892,VALID,16,VALID,0.911328,
2010-12-02, 00:32:04,VALID,1000.68,VALID,0,INVALID,163.639,VALID,0,VALID,24.9282,VALID,29,VALID,0.679688,
2010-12-02, 00:33:04,VALID,1000.65,VALID,0,INVALID,163.617,VALID,0,VALID,24.9457,VALID,29,VALID,0.905859,
2010-12-02, 00:34:04,VALID,1000.63,VALID,0,INVALID,163.639,VALID,0.100563,VALID,25.1229,VALID,18,VALID,0.481641,
2010-12-02, 00:35:04,VALID,1000.6,VALID,0,INVALID,163.639,VALID,0,VALID,25.1599,VALID,26,VALID,1.19609,
2010-12-02, 00:36:04,VALID,1000.62,VALID,0,INVALID,163.594,VALID,0,VALID,25.3176,VALID,16,VALID,0.785547,
2010-12-02, 00:37:04,VALID,1000.61,VALID,0,INVALID,163.609,VALID,0,VALID,25.5337,VALID,17,VALID,1.18711,
2010-12-02, 00:38:04,VALID,1000.62,VALID,0,INVALID,154.218,VALID,0,VALID,25.6292,VALID,35,VALID,0.55,
2010-12-02, 00:39:04,VALID,1000.61,VALID,0,INVALID,140.02,VALID,0,VALID,25.6292,VALID,48,VALID,0.405859,
2010-12-02, 00:40:04,VALID,1000.6,VALID,0,INVALID,137.8,VALID,0,VALID,25.6097,VALID,48,VALID,0.333203,
2010-12-02, 00:41:04,VALID,1000.59,VALID,0,INVALID,138.396,VALID,0,VALID,25.5688,VALID,48,VALID,0.385547,
2010-12-02, 00:42:04,VALID,1000.59,VALID,0,INVALID,140.173,VALID,0,VALID,25.5513,VALID,48,VALID,0.349609,
2010-12-02, 00:43:04,VALID,1000.57,VALID,0,INVALID,144.018,VALID,0,VALID,25.4928,VALID,48,VALID,0.324609,
2010-12-02, 00:44:04,VALID,1000.57,VALID,0,INVALID,151.738,VALID,0,VALID,25.4539,VALID,22,VALID,0.845703,
2010-12-02, 00:45:04,VALID,1000.55,VALID,0,INVALID,162.503,VALID,0,VALID,25.4169,VALID,7,VALID,0.602734,
2010-12-02, 00:46:04,VALID,1000.56,VALID,0,INVALID,163.571,VALID,0,VALID,25.4344,VALID,38,VALID,0.61875,
2010-12-02, 00:47:04,VALID,1000.52,VALID,0,INVALID,160.901,VALID,0,VALID,25.4734,VALID,32,VALID,0.634766,
2010-12-02, 00:48:04,VALID,1000.52,VALID,0,INVALID,151.143,VALID,0,VALID,25.5123,VALID,353,VALID,0.895703,
2010-12-02, 00:49:04,VALID,1000.49,VALID,0,INVALID,140.173,VALID,0,VALID,25.6116,VALID,58,VALID,0.524609,
2010-12-02, 00:50:04,VALID,1000.48,VALID,0,INVALID,137.968,VALID,0,VALID,25.5902,VALID,14,VALID,0.492188,
2010-12-02, 00:51:04,VALID,1000.47,VALID,0,INVALID,140.341,VALID,0,VALID,25.5513,VALID,14,VALID,0.605469,
2010-12-02, 00:52:04,VALID,1000.46,VALID,0,INVALID,147.741,VALID,0,VALID,25.4928,VALID,20,VALID,0.449219,
2010-12-02, 00:53:04,VALID,1000.45,VALID,0,INVALID,158.2,VALID,0,VALID,25.4169,VALID,30,VALID,0.774609,
2010-12-02, 00:54:04,VALID,1000.43,VALID,0,INVALID,163.556,VALID,0,VALID,25.3176,VALID,21,VALID,1.02695,
2010-12-02, 00:55:04,VALID,1000.44,VALID,0,INVALID,163.609,VALID,0,VALID,25.2592,VALID,22,VALID,0.510938,
2010-12-02, 00:56:04,VALID,1000.44,VALID,0,INVALID,163.632,VALID,0,VALID,25.1813,VALID,22,VALID,0.464844,
2010-12-02, 00:57:04,VALID,1000.43,VALID,0,INVALID,163.578,VALID,0,VALID,25.1034,VALID,357,VALID,1.05742,
2010-12-02, 00:58:04,VALID,1000.45,VALID,0,INVALID,163.617,VALID,0,VALID,25.2202,VALID,18,VALID,1.00312,
2010-12-02, 00:59:04,VALID,1000.42,VALID,0,INVALID,163.571,VALID,0,VALID,25.4344,VALID,13,VALID,1.0625,
2010-12-02, 01:00:04,VALID,1000.44,VALID,0,INVALID,154.622,VALID,0,VALID,25.6292,VALID,35,VALID,0.940625,
2010-12-02, 01:01:04,VALID,1000.4,VALID,0,INVALID,128.119,VALID,0,VALID,25.746,VALID,30,VALID,0.860156,
2010-12-02, 01:02:04,VALID,1000.41,VALID,0,INVALID,120.185,VALID,0,VALID,25.746,VALID,2,VALID,0.641406,
2010-12-02, 01:03:04,VALID,1000.41,VALID,0,INVALID,123.657,VALID,0,VALID,25.6486,VALID,2,VALID,0.238672,
2010-12-02, 01:04:04,VALID,1000.4,VALID,0,INVALID,134.017,VALID,0,VALID,25.5707,VALID,2,VALID,0.678516,
2010-12-02, 01:05:04,VALID,1000.38,VALID,0,INVALID,145.956,VALID,0,VALID,25.5123,VALID,2,VALID,0.591016,
2010-12-02, 01:06:04,VALID,1000.35,VALID,0,INVALID,153.34,VALID,0,VALID,25.5123,VALID,11,VALID,0.807031,
2010-12-02, 01:07:04,VALID,1000.34,VALID,0,INVALID,154.882,VALID,0,VALID,25.5123,VALID,24,VALID,0.565625,
2010-12-02, 01:08:04,VALID,1000.31,VALID,0,INVALID,156.468,VALID,0,VALID,25.5318,VALID,9,VALID,0.692187,
2010-12-02, 01:09:04,VALID,1000.3,VALID,0,INVALID,154.538,VALID,0,VALID,25.5513,VALID,18,VALID,0.655859,
2010-12-02, 01:10:04,VALID,1000.31,VALID,0,INVALID,152.089,VALID,0,VALID,25.5318,VALID,19,VALID,0.464844,
2010-12-02, 01:11:04,VALID,1000.3,VALID,0,INVALID,151.769,VALID,0.100563,VALID,25.5707,VALID,24,VALID,0.380078,
2010-12-02, 01:12:04,VALID,1000.33,VALID,0,INVALID,148.862,VALID,0,VALID,25.5707,VALID,24,VALID,0.0886719,
2010-12-02, 01:13:04,VALID,1000.3,VALID,0,INVALID,148.435,VALID,0,VALID,25.5513,VALID,24,VALID,0.180859,
2010-12-02, 01:14:04,VALID,1000.33,VALID,0,INVALID,149.206,VALID,0,VALID,25.4909,VALID,24,VALID,0.340234,
2010-12-02, 01:15:04,VALID,1000.33,VALID,0,INVALID,155.217,VALID,0,VALID,25.4734,VALID,23,VALID,0.765234,
2010-12-02, 01:16:04,VALID,1000.31,VALID,0,INVALID,163.571,VALID,0,VALID,25.3955,VALID,23,VALID,0.75,
2010-12-02, 01:17:04,VALID,1000.32,VALID,0,INVALID,163.586,VALID,0,VALID,25.4149,VALID,19,VALID,0.659766,
2010-12-02, 01:18:04,VALID,1000.31,VALID,0,INVALID,163.571,VALID,0,VALID,25.4149,VALID,360,VALID,0.791406,
2010-12-02, 01:19:04,VALID,1000.27,VALID,0,INVALID,163.571,VALID,0,VALID,25.4344,VALID,20,VALID,1.43867,
2010-12-02, 01:20:04,VALID,1000.31,VALID,0,INVALID,152.295,VALID,0,VALID,25.6876,VALID,12,VALID,1.66484,
2010-12-02, 01:21:05,VALID,1000.28,VALID,0,INVALID,126.121,VALID,0,VALID,25.8239,VALID,27,VALID,0.682031,
2010-12-02, 01:22:05,VALID,1000.27,VALID,0,INVALID,116.661,VALID,0,VALID,25.8453,VALID,21,VALID,0.572266,
2010-12-02, 01:23:05,VALID,1000.27,VALID,0,INVALID,119.201,VALID,0,VALID,25.7655,VALID,15,VALID,0.791797,
2010-12-02, 01:24:05,VALID,1000.24,VALID,0,INVALID,118.423,VALID,0,VALID,25.7655,VALID,2,VALID,1.21523,
2010-12-02, 01:25:05,VALID,1000.22,VALID,0,INVALID,115.211,VALID,0,VALID,25.8434,VALID,23,VALID,0.814453,
2010-12-02, 01:26:05,VALID,1000.21,VALID,0,INVALID,110.161,VALID,0,VALID,25.9018,VALID,48,VALID,0.430859,
2010-12-02, 01:27:05,VALID,1000.19,VALID,0,INVALID,109.818,VALID,0,VALID,25.9038,VALID,14,VALID,0.407422,
2010-12-02, 01:28:05,VALID,1000.19,VALID,0,INVALID,110.611,VALID,0,VALID,25.8629,VALID,17,VALID,0.809766,
2010-12-02, 01:29:05,VALID,1000.21,VALID,0,INVALID,110.459,VALID,0,VALID,25.9038,VALID,35,VALID,1.66562,
2010-12-02, 01:30:05,VALID,1000.18,VALID,0,VALID,104,VALID,0,VALID,26.0401,VALID,37,VALID,1.42227,
2010-12-02, 01:31:05,VALID,1000.16,VALID,0,VALID,102.883,VALID,0,VALID,26.1765,VALID,14,VALID,1.13125,
2010-12-02, 01:32:05,VALID,1000.2,VALID,0,VALID,102.258,VALID,0,VALID,26.194,VALID,25,VALID,0.9125,
2010-12-02, 01:33:05,VALID,1000.18,VALID,0,VALID,102.402,VALID,0,VALID,26.155,VALID,27,VALID,0.419531,
2010-12-02, 01:34:05,VALID,1000.17,VALID,0,VALID,101.952,VALID,0,VALID,26.1375,VALID,19,VALID,0.540234,
2010-12-02, 01:35:05,VALID,1000.16,VALID,0,VALID,102.708,VALID,0,VALID,26.116,VALID,341,VALID,0.460547,
2010-12-02, 01:36:05,VALID,1000.13,VALID,0,VALID,102.998,VALID,0,VALID,26.1355,VALID,43,VALID,0.574609,
2010-12-02, 01:37:05,VALID,1000.11,VALID,0,VALID,102.776,VALID,0,VALID,26.118,VALID,37,VALID,0.596875,
2010-12-02, 01:38:05,VALID,1000.1,VALID,0,VALID,104,VALID,0,VALID,25.9992,VALID,35,VALID,0.610937,
2010-12-02, 01:39:05,VALID,1000.08,VALID,0,VALID,104,VALID,0,VALID,25.9408,VALID,345,VALID,0.846875,
2010-12-02, 01:40:05,VALID,1000.09,VALID,0,VALID,104,VALID,0,VALID,26.0012,VALID,26,VALID,1.13828,
2010-12-02, 01:41:05,VALID,1000.1,VALID,0,VALID,102.448,VALID,0,VALID,26.118,VALID,25,VALID,0.898047,
2010-12-02, 01:42:05,VALID,1000.13,VALID,0,VALID,102.341,VALID,0,VALID,26.0771,VALID,12,VALID,0.915625,
2010-12-02, 01:43:05,VALID,1000.12,VALID,0,VALID,102.151,VALID,0,VALID,26.118,VALID,11,VALID,0.469922,
2010-12-02, 01:44:05,VALID,1000.1,VALID,0,VALID,102.052,VALID,0,VALID,26.0771,VALID,11,VALID,0.486328,
2010-12-02, 01:45:05,VALID,1000.12,VALID,0,VALID,103.059,VALID,0,VALID,26.0401,VALID,26,VALID,0.909766,
2010-12-02, 01:46:05,VALID,1000.07,VALID,0,VALID,103.829,VALID,0,VALID,26.0012,VALID,350,VALID,0.529297,
2010-12-02, 01:47:05,VALID,1000.07,VALID,0,VALID,104,VALID,0,VALID,25.9038,VALID,24,VALID,0.772266,
2010-12-02, 01:48:05,VALID,1000.05,VALID,0,VALID,104,VALID,0,VALID,25.8823,VALID,27,VALID,0.390625,
2010-12-02, 01:49:05,VALID,1000.02,VALID,0,VALID,104,VALID,0,VALID,25.9232,VALID,27,VALID,0.363281,
2010-12-02, 01:50:05,VALID,999.996,VALID,0,VALID,104,VALID,0,VALID,25.9038,VALID,28,VALID,0.702344,
2010-12-02, 01:51:05,VALID,999.974,VALID,0,VALID,104,VALID,0,VALID,25.8648,VALID,37,VALID,0.505078,
2010-12-02, 01:52:05,VALID,999.944,VALID,0,INVALID,110.619,VALID,0,VALID,25.8064,VALID,42,VALID,0.739844,
2010-12-02, 01:53:05,VALID,999.93,VALID,0,INVALID,111.656,VALID,0,VALID,25.8453,VALID,12,VALID,0.791406,
2010-12-02, 01:54:05,VALID,999.888,VALID,0,INVALID,110.977,VALID,0,VALID,25.9038,VALID,21,VALID,0.214062,
2010-12-02, 01:55:05,VALID,999.846,VALID,0,INVALID,110.619,VALID,0,VALID,25.8259,VALID,21,VALID,0.712109,
2010-12-02, 01:56:05,VALID,999.857,VALID,0,INVALID,114.67,VALID,0,VALID,25.8064,VALID,355,VALID,0.558594,
2010-12-02, 01:57:05,VALID,999.844,VALID,0,INVALID,118.835,VALID,0,VALID,25.7674,VALID,3,VALID,0.703906,
2010-12-02, 01:58:05,VALID,999.822,VALID,0,INVALID,118.744,VALID,0,VALID,25.8064,VALID,355,VALID,0.647266,
2010-12-02, 01:59:05,VALID,999.84,VALID,0,INVALID,117.706,VALID,0,VALID,25.8239,VALID,354,VALID,0.194531,
2010-12-02, 02:00:05,VALID,999.819,VALID,0,INVALID,119.155,VALID,0,VALID,25.8064,VALID,19,VALID,0.365234,
2010-12-02, 02:01:05,VALID,999.822,VALID,0,INVALID,120.62,VALID,0,VALID,25.7674,VALID,359,VALID,0.455859,
2010-12-02, 02:02:05,VALID,999.79,VALID,0,INVALID,121.536,VALID,0,VALID,25.8064,VALID,12,VALID,0.686328,
2010-12-02, 02:03:05,VALID,999.817,VALID,0,INVALID,120.933,VALID,0,VALID,25.8453,VALID,5,VALID,0.408594,
2010-12-02, 02:04:05,VALID,999.795,VALID,0,INVALID,118.141,VALID,0,VALID,25.8648,VALID,5,VALID,0.170703,
2010-12-02, 02:05:05,VALID,999.79,VALID,0,INVALID,121.177,VALID,0,VALID,25.8239,VALID,5,VALID,0.256641,
2010-12-02, 02:06:05,VALID,999.805,VALID,0,INVALID,121.04,VALID,0,VALID,25.8239,VALID,5,VALID,0.157813,
2010-12-02, 02:07:05,VALID,999.836,VALID,0,INVALID,121.597,VALID,0,VALID,25.8239,VALID,5,VALID,0.0402344,
2010-12-02, 02:08:05,VALID,999.83,VALID,0,INVALID,123.138,VALID,0,VALID,25.8259,VALID,8,VALID,0.337109,
2010-12-02, 02:09:05,VALID,999.864,VALID,0,INVALID,122.749,VALID,0,VALID,25.8064,VALID,39,VALID,0.336328,
2010-12-02, 02:10:05,VALID,999.883,VALID,0,INVALID,122.558,VALID,0,VALID,25.8239,VALID,44,VALID,0.379687,
2010-12-02, 02:11:05,VALID,999.882,VALID,0,INVALID,122.833,VALID,0,VALID,25.8434,VALID,84,VALID,0.449219,
2010-12-02, 02:12:05,VALID,999.864,VALID,0,INVALID,119.827,VALID,0,VALID,25.8434,VALID,79,VALID,0.414844,
2010-12-02, 02:13:05,VALID,999.859,VALID,0,INVALID,118.263,VALID,0.100563,VALID,25.8414,VALID,79,VALID,0.149609,
2010-12-02, 02:14:05,VALID,999.841,VALID,0,INVALID,114.982,VALID,0.100563,VALID,25.8804,VALID,39,VALID,0.435547,
2010-12-02, 02:15:05,VALID,999.874,VALID,0,INVALID,112.267,VALID,0.100563,VALID,25.9193,VALID,35,VALID,0.642578,
2010-12-02, 02:16:05,VALID,999.868,VALID,0,INVALID,109.696,VALID,0.100563,VALID,25.9777,VALID,38,VALID,0.466016,
2010-12-02, 02:17:05,VALID,999.853,VALID,0,VALID,104,VALID,0.100563,VALID,26.0187,VALID,36,VALID,0.428906,
2010-12-02, 02:18:05,VALID,999.872,VALID,0,VALID,104,VALID,0.100563,VALID,26.0362,VALID,10,VALID,0.688672,
2010-12-02, 02:19:05,VALID,999.864,VALID,0,VALID,104,VALID,0.100563,VALID,26.0556,VALID,6,VALID,0.31875,
2010-12-02, 02:20:05,VALID,999.884,VALID,0,VALID,104,VALID,0,VALID,26.0381,VALID,6,VALID,0.206641,
2010-12-02, 02:21:05,VALID,999.862,VALID,0,VALID,104,VALID,0.100563,VALID,26.0381,VALID,6,VALID,0.283984,
2010-12-02, 02:22:05,VALID,999.867,VALID,0,VALID,104,VALID,0.100563,VALID,26.0576,VALID,4,VALID,0.644141,
2010-12-02, 02:23:05,VALID,999.861,VALID,0,VALID,104,VALID,0.100563,VALID,26.0985,VALID,19,VALID,0.489844,
2010-12-02, 02:24:05,VALID,999.837,VALID,0,VALID,104,VALID,0.100563,VALID,26.0966,VALID,19,VALID,0.485156,
2010-12-02, 02:25:05,VALID,999.845,VALID,0,VALID,103.753,VALID,0,VALID,26.0985,VALID,19,VALID,0.490234,
2010-12-02, 02:26:05,VALID,999.833,VALID,0,VALID,103.524,VALID,0,VALID,26.118,VALID,19,VALID,0.609766,
2010-12-02, 02:27:05,VALID,999.813,VALID,0,VALID,102.761,VALID,0,VALID,26.116,VALID,19,VALID,0.479297,
2010-12-02, 02:28:05,VALID,999.822,VALID,0,VALID,102.578,VALID,0,VALID,26.1765,VALID,19,VALID,0.307031,
2010-12-02, 02:29:05,VALID,999.82,VALID,0,VALID,103.219,VALID,0,VALID,26.1765,VALID,19,VALID,0.247656,
2010-12-02, 02:30:05,VALID,999.808,VALID,0,VALID,103.585,VALID,0,VALID,26.155,VALID,19,VALID,0.192578,
2010-12-02, 02:31:05,VALID,999.832,VALID,0,VALID,103.188,VALID,0,VALID,26.157,VALID,19,VALID,0.593359,
2010-12-02, 02:32:05,VALID,999.804,VALID,0,VALID,102.853,VALID,0,VALID,26.157,VALID,11,VALID,0.734375,
2010-12-02, 02:33:05,VALID,999.81,VALID,0,VALID,102.776,VALID,0,VALID,26.1765,VALID,12,VALID,0.501562,
2010-12-02, 02:34:05,VALID,999.795,VALID,0,VALID,104,VALID,0,VALID,26.155,VALID,12,VALID,0.495703,
2010-12-02, 02:35:05,VALID,999.777,VALID,0,VALID,104,VALID,0,VALID,26.118,VALID,12,VALID,0.594922,
2010-12-02, 02:36:05,VALID,999.774,VALID,0,VALID,104,VALID,0,VALID,26.0985,VALID,30,VALID,0.849219,
2010-12-02, 02:37:05,VALID,999.751,VALID,0,VALID,104,VALID,0,VALID,26.0985,VALID,25,VALID,0.610547,
2010-12-02, 02:38:05,VALID,999.759,VALID,0,VALID,104,VALID,0,VALID,26.0985,VALID,17,VALID,0.8375,
2010-12-02, 02:39:05,VALID,999.73,VALID,0,VALID,104,VALID,0,VALID,26.1375,VALID,36,VALID,0.696875,
2010-12-02, 02:40:05,VALID,999.743,VALID,0,VALID,104,VALID,0,VALID,26.1355,VALID,41,VALID,0.257422,
2010-12-02, 02:41:05,VALID,999.716,VALID,0,VALID,104,VALID,0,VALID,26.155,VALID,10,VALID,0.300391,
2010-12-02, 02:42:05,VALID,999.692,VALID,0,VALID,104,VALID,0,VALID,26.157,VALID,107,VALID,0.330469,
2010-12-02, 02:43:05,VALID,999.676,VALID,0,VALID,104,VALID,0,VALID,26.0966,VALID,107,VALID,0.260547,
2010-12-02, 02:44:05,VALID,999.703,VALID,0,VALID,104,VALID,0,VALID,26.0596,VALID,107,VALID,0.0527344,
2010-12-02, 02:45:05,VALID,999.703,VALID,0,VALID,104,VALID,0,VALID,26.0985,VALID,76,VALID,0.714844,
2010-12-02, 02:46:05,VALID,999.686,VALID,0,VALID,104,VALID,0,VALID,26.157,VALID,76,VALID,0.235156,
2010-12-02, 02:47:05,VALID,999.712,VALID,0,VALID,104,VALID,0,VALID,26.1355,VALID,76,VALID,0.3875,
2010-12-02, 02:48:05,VALID,999.736,VALID,0,VALID,104,VALID,0,VALID,26.0576,VALID,76,VALID,0.432031,
2010-12-02, 02:49:05,VALID,999.735,VALID,0,INVALID,110.443,VALID,0,VALID,26.0206,VALID,76,VALID,0.285937,
2010-12-02, 02:50:05,VALID,999.715,VALID,0,INVALID,118.934,VALID,0,VALID,25.9427,VALID,76,VALID,0.325391,
2010-12-02, 02:51:05,VALID,999.707,VALID,0,INVALID,131.423,VALID,0,VALID,25.8843,VALID,76,VALID,0,
2010-12-02, 02:52:05,VALID,999.685,VALID,0,INVALID,150.251,VALID,0,VALID,25.8259,VALID,76,VALID,0,
2010-12-02, 02:53:05,VALID,999.669,VALID,0,INVALID,163.517,VALID,0,VALID,25.7674,VALID,76,VALID,0,
2010-12-02, 02:54:05,VALID,999.662,VALID,0,INVALID,163.563,VALID,0,VALID,25.709,VALID,76,VALID,0,
2010-12-02, 02:55:05,VALID,999.632,VALID,0,INVALID,163.548,VALID,0.100563,VALID,25.6467,VALID,76,VALID,0,
2010-12-02, 02:56:05,VALID,999.62,VALID,0,INVALID,163.556,VALID,0,VALID,25.6077,VALID,76,VALID,0,
2010-12-02, 02:57:05,VALID,999.552,VALID,0,INVALID,163.556,VALID,0,VALID,25.6292,VALID,76,VALID,0,
2010-12-02, 02:58:05,VALID,999.541,VALID,0,INVALID,163.594,VALID,0.100563,VALID,25.5902,VALID,76,VALID,0,
2010-12-02, 02:59:05,VALID,999.528,VALID,0,INVALID,163.563,VALID,0.100563,VALID,25.5513,VALID,76,VALID,0,
2010-12-02, 03:00:05,VALID,999.499,VALID,0,INVALID,163.578,VALID,0.100563,VALID,25.5337,VALID,33,VALID,0,
2010-12-02, 03:01:05,VALID,999.505,VALID,0,INVALID,163.578,VALID,0.100563,VALID,25.4928,VALID,32,VALID,0,
2010-12-02, 03:02:05,VALID,999.479,VALID,0,INVALID,163.601,VALID,0.100563,VALID,25.452,VALID,358,VALID,0,
2010-12-02, 03:03:05,VALID,999.434,VALID,0,INVALID,163.594,VALID,0.100563,VALID,25.4325,VALID,358,VALID,0,
2010-12-02, 03:04:05,VALID,999.435,VALID,0,INVALID,163.601,VALID,0.100563,VALID,25.4149,VALID,358,VALID,0,
2010-12-02, 03:05:05,VALID,999.402,VALID,0,INVALID,163.578,VALID,0,VALID,25.3955,VALID,358,VALID,0,
2010-12-02, 03:06:05,VALID,999.367,VALID,0,INVALID,163.563,VALID,0.100563,VALID,25.413,VALID,37,VALID,0.904297,
2010-12-02, 03:07:05,VALID,999.336,VALID,0,INVALID,163.578,VALID,0.100563,VALID,25.5318,VALID,5,VALID,0.926953,
2010-12-02, 03:08:05,VALID,999.315,VALID,0,INVALID,163.571,VALID,0.100563,VALID,25.6876,VALID,2,VALID,0.992188,
2010-12-02, 03:09:05,VALID,999.318,VALID,0,INVALID,163.563,VALID,0.100563,VALID,25.8239,VALID,41,VALID,0.884766,
2010-12-02, 03:10:05,VALID,999.29,VALID,0,INVALID,148.786,VALID,0,VALID,26.0012,VALID,20,VALID,0.598047,
2010-12-02, 03:11:05,VALID,999.28,VALID,0,INVALID,130.721,VALID,0,VALID,26.0985,VALID,20,VALID,0.388281,
2010-12-02, 03:12:05,VALID,999.289,VALID,0,INVALID,118.255,VALID,0,VALID,26.1375,VALID,20,VALID,0.735156,
2010-12-02, 03:13:05,VALID,999.259,VALID,0,INVALID,113.518,VALID,0,VALID,26.1765,VALID,25,VALID,0.272266,
2010-12-02, 03:14:05,VALID,999.284,VALID,0,VALID,104,VALID,0,VALID,26.194,VALID,25,VALID,0.584766,
2010-12-02, 03:15:05,VALID,999.271,VALID,0,VALID,104,VALID,0,VALID,26.2544,VALID,25,VALID,0.232422,
2010-12-02, 03:16:05,VALID,999.312,VALID,0,VALID,104,VALID,0,VALID,26.2953,VALID,70,VALID,0.307813,
2010-12-02, 03:17:05,VALID,999.289,VALID,0,VALID,104,VALID,0,VALID,26.3128,VALID,70,VALID,0.209766,
2010-12-02, 03:18:05,VALID,999.303,VALID,0,VALID,104,VALID,0,VALID,26.3128,VALID,70,VALID,0.133594,
2010-12-02, 03:19:05,VALID,999.323,VALID,0,VALID,104,VALID,0,VALID,26.2739,VALID,70,VALID,0.507422,
2010-12-02, 03:20:05,VALID,999.331,VALID,0,VALID,104,VALID,0,VALID,26.2154,VALID,70,VALID,0.146875,
2010-12-02, 03:21:05,VALID,999.346,VALID,0,VALID,104,VALID,0,VALID,26.1745,VALID,70,VALID,0.00976563,
2010-12-02, 03:22:05,VALID,999.34,VALID,0,VALID,104,VALID,0,VALID,26.1765,VALID,70,VALID,0.124609,
2010-12-02, 03:23:05,VALID,999.364,VALID,0,VALID,104,VALID,0,VALID,26.157,VALID,70,VALID,0.191406,
2010-12-02, 03:24:05,VALID,999.377,VALID,0,VALID,104,VALID,0,VALID,26.157,VALID,71,VALID,0.497656,
2010-12-02, 03:25:05,VALID,999.388,VALID,0,VALID,104,VALID,0,VALID,26.1765,VALID,101,VALID,0.546875,
2010-12-02, 03:26:05,VALID,999.399,VALID,0,VALID,104,VALID,0,VALID,26.2174,VALID,92,VALID,0.636328,
2010-12-02, 03:27:05,VALID,999.4,VALID,0,VALID,102.372,VALID,0,VALID,26.2933,VALID,86,VALID,0.758594,
2010-12-02, 03:28:05,VALID,999.419,VALID,0,VALID,101.304,VALID,0,VALID,26.3323,VALID,108,VALID,0.820313,
2010-12-02, 03:29:05,VALID,999.42,VALID,0,VALID,101.045,VALID,0,VALID,26.3713,VALID,88,VALID,0.256641,
2010-12-02, 03:30:05,VALID,999.387,VALID,0,VALID,100.274,VALID,0,VALID,26.3927,VALID,81,VALID,0.613281,
2010-12-02, 03:31:05,VALID,999.393,VALID,0,VALID,100.053,VALID,0,VALID,26.3907,VALID,89,VALID,0.343359,
2010-12-02, 03:32:05,VALID,999.404,VALID,0,VALID,99.6637,VALID,0,VALID,26.3907,VALID,91,VALID,0.414063,
2010-12-02, 03:33:05,VALID,999.415,VALID,0,VALID,100.373,VALID,0,VALID,26.3907,VALID,51,VALID,0.535547,
2010-12-02, 03:34:05,VALID,999.43,VALID,0,VALID,100.243,VALID,0,VALID,26.3518,VALID,39,VALID,0.140625,
2010-12-02, 03:35:05,VALID,999.461,VALID,0,VALID,101.174,VALID,0,VALID,26.3323,VALID,39,VALID,0.377344,
2010-12-02, 03:36:05,VALID,999.457,VALID,0,VALID,101.136,VALID,0,VALID,26.2719,VALID,47,VALID,0.565234,
2010-12-02, 03:37:05,VALID,999.468,VALID,0,VALID,101.601,VALID,0,VALID,26.2933,VALID,14,VALID,0.694141,
2010-12-02, 03:38:05,VALID,999.442,VALID,0,VALID,100.724,VALID,0,VALID,26.2933,VALID,23,VALID,0.280078,
2010-12-02, 03:39:05,VALID,999.436,VALID,0,VALID,100.594,VALID,0,VALID,26.3343,VALID,88,VALID,0.248437,
2010-12-02, 03:40:05,VALID,999.44,VALID,0,VALID,100.427,VALID,0,VALID,26.3108,VALID,84,VALID,0.360938,
2010-12-02, 03:41:05,VALID,999.442,VALID,0,VALID,100.106,VALID,0,VALID,26.3303,VALID,73,VALID,0.478516,
2010-12-02, 03:42:05,VALID,999.415,VALID,0,VALID,100.03,VALID,0.100563,VALID,26.3303,VALID,69,VALID,0.325781,
2010-12-02, 03:43:05,VALID,999.44,VALID,0,VALID,100.121,VALID,0,VALID,26.3303,VALID,69,VALID,0.367188,
2010-12-02, 03:44:05,VALID,999.443,VALID,0,VALID,100.16,VALID,0,VALID,26.3108,VALID,71,VALID,0.422266,
2010-12-02, 03:45:05,VALID,999.449,VALID,0,VALID,99.4959,VALID,0,VALID,26.3108,VALID,116,VALID,0.582812,